Location: Franzen
(48.6167°N, 15.3833°E)
Time: 07:28:18
(UTC+00:00)

Transit 2A - Pass Details

Date: 11 August 2021
Orbit: 594 x 964 km, 66.7° (Epoch: 24 September)

Event Time Altitude Azimuth Distance (km) Brightness Sun altitude
Rises 09:56:13 0° 327° (NNW) 3,208 8.9 53.8°
Reaches altitude 10° 09:58:44 10° 337° (NNW) 2,341 8.3 54.0°
Maximum altitude 10:03:39 34° 42° (NE) 1,348 7.6 54.3°
Drops below altitude 10° 10:09:00 10° 106° (ESE) 2,554 9.2 54.7°
Sets 10:11:50 0° 116° (ESE) 3,540 9.8 54.9°
